RH
40 38 42 46 50 55 55 55 56 55 59 62 62 60 58 56 56 59 64 62 63 65 65 67 69 70 58 50 59 64 56 61 75 78 62 61 66 68 63 61 60 82 80
43 50 49 51 54 52 56 56 55 60 59 61 62 64 63 60 60 62 62 54 58 64 63 66 68 57 72 67 65 69 59 64 60 82 63 55 59 73 72 69 53 63 68
50 50 55 61 70 68 67 66 64 64 62 58 60 64 66 65 64 65 66 62 61 60 62 65 66 66 71 57 65 69 67 60 60 50 53 46 50 51 61 67 65 70 61
55 57 64 62 65 63 66 66 66 66 66 64 64 66 66 64 64 66 62 63 63 60 63 64 63 65 68 69 73 79 73 67 58 48 46 49 47 57 45 46 49 48 63
48 47 53 57 59 60 63 66 67 68 64 65 65 63 64 61 55 63 62 61 65 63 60 60 65 68 82 76 64 73 74 64 49 43 42 44 48 50 50 43 43 46 56
46 53 49 53 53 53 48 47 49 53 57 64 65 65 66 53 70 82 77 54 61 63 63 60 65 82 85 95 91 86 76 72 61 42 41 46 61 54 49 44 41 44 47
51 50 51 50 48 51 49 50 51 51 52 51 51 55 60 62 85 91 91 64 58 58 63 61 67 61 76 66 92 92 87 86 76 62 59 54 65 58 59 64 64 53 45
48 49 51 52 50 51 53 54 56 53 54 54 54 56 58 56 90 100 99 80 71 63 59 62 74 70 70 65 67 69 66 63 60 46 58 57 56 61 63 59 70 67 52
42 47 50 53 55 54 55 59 59 56 57 54 49 57 63 66 92 100 98 77 69 68 63 72 74 70 87 91 67 70 70 59 78 84 87 84 81 76 66 48 56 53 41
50 53 59 63 58 60 61 64 61 60 58 41 51 57 59 66 84 100 96 78 72 65 83 86 95 77 100 96 68 69 72 61 55 60 64 76 76 73 84 64 49 72 37
42 48 53 55 65 66 71 74 73 73 68 64 63 63 65 67 70 100 100 87 78 94 90 92 85 97 100 100 94 66 68 62 68 59 54 53 56 56 50 55 56 73 49
49 52 55 57 49 43 66 64 66 70 72 73 73 61 39 60 73 89 100 99 97 94 93 96 90 100 100 100 89 86 89 77 50 49 47 56 60 46 46 51 59 58 71
62 64 63 61 54 55 65 64 51 60 52 49 37 33 32 31 39 98 100 100 100 98 92 100 100 100 100 99 97 91 93 53 47 48 45 44 43 41 51 58 62 66 67
64 64 62 63 62 60 46 40 36 33 32 32 33 33 31 32 34 34 50 72 95 94 96 95 99 99 98 90 87 77 59 51 49 46 43 40 40 50 49 49 50 53 51
61 59 57 48 49 49 50 39 36 44 36 33 32 31 33 35 40 83 79 54 65 89 98 100 100 99 97 81 79 70 63 60 56 47 47 41 43 47 49 45 44 45 50
58 49 44 42 41 40 40 40 57 68 71 80 98 76 43 64 100 100 100 100 100 100 94 93 98 97 95 90 81 70 62 72 58 50 50 44 43 44 44 44 44 44 46
75 66 57 55 46 45 43 42 42 42 79 84 99 100 100 95 100 100 100 100 100 100 97 81 85 80 96 89 92 71 68 73 66 68 57 45 42 42 45 44 44 45 44
71 77 65 62 58 53 50 45 40 41 40 37 79 90 99 100 100 100 100 99 82 94 94 97 92 81 80 77 87 87 66 74 61 61 64 44 44 46 42 42 42 45 44
64 78 78 66 72 68 63 62 55 47 42 40 38 70 85 100 100 99 99 78 61 54 52 66 84 91 82 72 66 80 77 78 60 64 74 47 56 53 47 41 41 60 55
62 80 80 60 54 52 55 65 61 63 58 44 39 38 41 66 66 62 61 59 59 58 53 54 57 72 73 75 78 73 77 72 71 67 74 51 54 58 56 54 54 50 43
64 59 66 55 53 58 61 77 80 69 73 61 54 43 69 47 48 44 41 52 57 57 63 68 70 71 78 84 86 85 82 73 60 64 73 56 49 58 61 59 57 56 52
85 79 71 80 87 93 93 95 95 94 79 79 70 51 99 60 46 44 47 72 81 80 78 88 84 81 76 80 80 82 85 74 66 60 62 62 45 64 63 54 48 53 62
96 94 93 94 95 97 96 94 95 91 84 81 72 63 73 65 54 50 60 70 82 93 95 95 94 94 85 86 87 73 65 57 61 61 65 63 69 71 71 57 56 58 61
94 94 94 94 96 97 96 92 89 92 79 73 70 72 77 78 72 76 78 82 95 97 99 98 98 97 96 86 78 68 62 72 68 72 66 62 57 69 57 61 60 66 69
94 94 94 95 96 95 95 94 95 94 91 88 75 78 77 84 85 84 84 95 98 99 99 100 99 91 79 82 86 86 95 97 74 80 74 74 66 69 61 60 67 64 63
91 88 90 89 92 92 94 96 96 96 95 94 86 89 94 93 90 90 96 98 99 99 99 99 99 96 91 88 86 96 98 97 80 88 69 61 61 66 56 61 63 58 65
Wind_Speed
10 11 11 10 11 11 11 10 10 10 10 11 11 11 11 11 11 10 9 9 9 9 8 8 8 5 4 4 2 6 3 4 3 3 3 4 5 5 5 5 6 7 8
5 6 7 7 7 8 8 9 9 9 9 11 11 11 12 11 11 11 11 11 10 11 10 10 9 5 5 3 4 4 4 1 1 5 5 6 4 5 4 4 4 7 7
4 4 4 3 3 5 7 8 7 8 9 10 9 10 11 11 11 11 11 12 13 13 12 11 9 6 5 3 4 5 4 3 4 6 6 5 6 5 7 5 4 6 8
7 5 5 4 2 3 2 4 5 5 8 8 8 9 10 11 11 11 12 13 14 13 12 11 8 6 7 7 6 6 4 5 3 5 6 7 6 5 3 5 5 6 6
12 12 10 9 9 8 9 9 8 5 6 7 8 9 10 10 9 12 12 14 14 14 12 10 8 7 2 4 6 8 6 7 6 6 6 6 5 6 5 4 3 4 4
10 9 8 8 7 8 9 8 7 7 8 7 6 8 10 9 6 9 11 13 14 14 13 11 9 8 6 5 3 4 7 7 6 5 5 5 5 5 4 5 4 6 6
8 8 7 7 6 6 6 6 7 7 8 8 9 10 10 10 6 8 10 15 16 14 13 12 10 8 9 10 7 5 6 3 5 5 4 5 7 5 5 4 2 4 2
6 6 7 7 8 8 7 7 6 6 7 8 9 10 12 11 9 8 10 13 17 17 15 12 10 11 12 11 10 11 10 10 8 7 5 6 6 7 7 3 4 3 4
6 7 8 9 10 9 9 9 8 8 8 8 9 11 11 12 10 8 7 12 15 17 14 10 12 12 11 9 12 11 11 10 9 8 10 11 10 5 4 6 6 6 6
8 8 7 8 11 11 11 11 9 10 10 9 11 11 12 13 10 6 7 9 15 12 10 10 9 12 15 14 13 12 12 12 11 11 8 6 8 7 4 6 4 5 6
11 12 11 11 11 11 10 8 9 10 11 11 12 12 13 12 12 6 9 8 10 9 7 7 7 9 13 15 15 12 12 12 10 11 10 9 10 10 9 8 5 2 3
14 14 14 14 13 12 12 12 12 12 12 12 13 13 13 9 10 8 9 12 7 6 6 3 5 17 14 15 13 8 10 10 10 10 10 9 8 10 10 9 6 5 3
14 15 15 16 15 14 13 13 13 13 14 14 13 12 11 10 10 11 8 10 9 6 7 4 4 17 14 12 9 12 13 11 10 10 9 9 9 9 9 9 8 7 5
15 16 14 14 15 15 13 14 14 14 13 13 13 13 12 11 10 10 5 4 8 7 9 8 8 8 12 10 12 11 12 11 10 9 9 8 8 8 9 10 9 9 9
17 16 16 14 15 14 13 14 14 14 13 13 13 13 12 11 4 6 7 10 6 4 4 2 3 5 8 11 12 12 11 9 9 9 8 9 9 10 11 10 9 9 8
17 15 14 13 13 13 13 14 15 19 17 16 15 13 14 12 2 2 3 6 8 8 4 4 4 6 8 9 9 11 12 9 11 10 8 10 10 11 11 10 9 9 9
15 14 14 16 14 13 12 13 13 13 17 19 17 15 15 19 8 5 4 4 6 3 5 9 8 9 7 9 9 11 13 10 12 8 9 11 11 11 11 11 11 9 9
16 16 14 13 13 14 13 13 13 13 13 13 16 13 14 15 14 12 8 6 6 6 8 9 8 7 9 12 11 11 12 11 13 12 9 12 10 11 12 11 12 11 10
14 10 11 12 11 10 12 14 14 15 14 14 13 10 13 11 8 6 10 8 9 10 11 13 11 11 13 13 13 11 13 10 13 13 9 12 9 9 11 12 11 11 11
13 17 16 13 13 13 12 12 13 14 15 14 14 13 10 6 9 11 12 10 10 10 11 12 13 13 12 11 11 12 12 12 13 13 11 12 11 8 10 10 8 10 11
13 11 14 12 12 12 12 10 12 14 12 14 13 14 10 10 12 13 11 9 10 9 10 10 10 12 12 10 11 10 12 12 14 13 11 12 11 10 10 8 8 11 9
9 10 10 8 8 9 11 10 11 12 15 12 13 14 2 8 12 12 11 8 9 10 8 9 9 10 11 11 12 12 12 13 13 15 15 11 12 9 8 9 8 8 9
7 8 9 9 10 10 10 11 11 12 12 12 13 12 10 11 11 10 10 9 8 6 6 8 9 8 9 11 10 12 14 13 12 11 9 8 7 8 7 9 8 7 8
6 7 8 8 7 8 8 9 9 11 12 12 12 12 11 11 7 8 9 7 3 3 3 6 5 6 6 6 6 6 7 7 7 7 10 9 8 5 6 8 10 12 9
6 6 6 6 6 6 7 8 8 9 9 10 13 11 10 4 7 5 5 1 1 0 1 1 1 9 15 16 11 12 12 12 11 11 5 10 12 13 10 8 8 8 8
8 8 7 6 7 8 7 7 7 7 9 10 10 7 5 5 3 2 3 4 3 2 3 4 5 10 9 13 16 17 16 15 13 15 11 12 11 10 10 11 11 8 7
Wind_Direction
216 214 219 224 228 232 242 246 248 256 259 255 254 255 254 256 257 254 256 269 255 264 265 257 262 263 271 272 268 243 229 241 130 128 160 127 90 39 55 48 69 87 86
206 228 231 235 247 251 246 255 249 251 254 252 253 253 253 251 248 249 253 265 248 256 259 250 253 250 237 239 239 278 283 195 110 156 159 153 119 115 89 82 63 101 106
181 193 211 239 252 255 263 265 262 264 258 259 253 249 253 252 253 250 249 249 250 253 254 254 252 238 246 290 251 200 206 206 203 163 151 148 144 149 130 108 98 94 91
90 88 78 51 76 171 230 262 268 278 277 271 265 258 250 249 247 242 246 245 247 248 254 259 258 235 228 211 208 217 183 202 162 176 155 150 169 158 160 144 161 156 120
73 70 58 45 36 40 31 22 8 343 307 298 288 272 257 252 247 234 238 245 248 252 252 249 234 235 171 249 200 207 179 215 189 173 167 169 158 176 175 152 147 137 150
64 65 56 46 33 19 23 20 7 347 351 332 309 288 277 266 265 222 255 258 255 253 253 242 225 168 200 201 234 211 199 204 220 193 172 185 139 188 129 175 156 203 150
34 26 19 21 14 8 7 4 357 350 344 337 326 314 303 294 289 229 238 261 266 255 247 244 209 198 190 191 175 180 198 347 357 221 178 191 163 175 143 183 149 224 96
359 354 346 338 337 338 334 339 338 335 334 323 318 314 310 302 320 253 240 265 268 262 257 241 217 207 195 192 178 195 193 187 186 215 178 170 170 162 171 174 136 104 143
338 336 333 327 317 317 314 316 315 317 317 317 314 306 301 298 321 310 274 281 265 261 253 237 218 211 175 192 187 192 189 189 136 80 62 77 94 146 200 168 167 220 161
322 318 312 312 305 306 304 303 303 300 297 302 304 302 300 294 298 292 276 289 281 270 247 235 196 216 161 180 202 190 193 184 167 174 154 142 155 171 225 254 208 262 153
310 314 312 304 298 286 282 281 289 292 293 290 290 291 291 284 294 267 254 276 283 321 281 244 179 188 174 185 224 197 196 175 163 173 187 180 180 169 191 213 223 284 264
312 306 300 295 291 293 293 286 280 277 271 264 262 263 269 258 253 250 233 244 274 297 316 316 217 165 185 194 205 174 148 177 174 193 197 177 194 183 183 187 182 229 39
296 292 290 289 284 280 278 274 270 259 256 261 265 272 278 282 281 173 236 261 243 247 263 306 171 180 179 192 198 150 162 201 191 197 207 199 189 185 165 168 169 185 215
288 287 286 282 279 276 273 271 267 263 262 267 269 270 274 277 282 288 252 281 245 237 238 236 201 182 175 188 162 176 194 198 206 204 205 204 184 152 191 180 182 183 205
290 287 283 277 274 272 262 266 267 266 271 277 273 275 277 277 296 39 0 317 329 335 233 155 148 174 187 193 175 186 200 193 205 207 203 192 183 179 199 190 195 184 197
287 283 282 287 284 279 278 273 246 239 255 260 255 256 275 280 182 94 4 344 343 299 234 213 195 196 186 200 175 182 197 179 196 208 203 198 191 195 197 190 198 198 203
281 283 289 293 278 277 273 269 272 265 225 233 231 230 222 253 284 230 230 267 273 321 246 268 216 189 204 202 194 183 195 184 191 207 210 201 198 201 193 191 197 197 202
280 276 270 272 278 287 287 281 272 273 274 273 221 222 220 238 251 248 178 163 232 196 228 232 243 249 207 215 209 201 190 176 194 194 213 209 199 203 195 204 199 200 204
286 275 278 279 269 272 282 284 286 282 275 273 268 196 200 204 220 245 176 240 249 242 232 224 225 224 228 213 208 208 198 175 193 188 204 216 186 200 202 204 198 199 204
279 262 261 267 267 267 275 268 271 268 274 266 262 261 244 163 220 228 219 229 233 239 244 242 244 230 224 217 209 200 191 187 183 189 194 218 180 209 190 203 195 201 200
289 281 264 269 265 260 277 283 275 276 276 279 277 269 275 238 250 259 265 238 254 243 247 241 233 235 224 215 210 202 191 182 189 187 190 211 189 197 215 206 204 185 213
271 281 286 287 289 270 259 259 262 268 270 268 265 264 245 258 255 258 262 260 249 250 249 238 232 226 220 216 198 191 195 190 187 187 189 202 199 184 213 223 205 191 198
257 264 265 263 261 257 257 260 262 268 267 257 261 266 248 250 248 254 260 256 253 239 242 231 230 226 219 207 192 194 195 188 165 181 171 170 169 176 181 188 197 185 185
293 276 276 280 276 269 266 269 266 259 263 268 274 270 261 258 247 250 256 257 252 261 254 237 191 166 122 93 121 135 136 130 130 132 146 153 158 121 168 165 169 162 157
330 327 321 318 314 317 317 307 298 289 275 266 262 263 270 264 256 239 248 200 92 168 31 3 173 143 147 138 124 118 114 102 110 108 87 119 151 147 151 145 144 136 145
341 339 335 341 332 326 313 307 299 294 289 283 275 283 267 250 229 167 134 102 88 62 95 84 78 92 106 123 124 119 116 123 123 125 133 139 139 138 146 138 155 139 148